• In Deutschland
  • Länderverzeichnis
  • Für 7 Tage
  • Wassertemperatur
  • Satellitenkarten
  • Wetterkarte
  • Widgets
  • user-avatar
    Anmelden

    Stündliche Wetter Ndjbele

    Heute, 21 Januar, Sonntag

    Zeit Temperatur Niederschläge Wind Luftdruck Luftfeuchtigkeit
    00:00 +18°C° 0 mm 0 m/S 715 mmHg 36%
    01:00 +18°C° 0 mm 0 m/S 715 mmHg 40%
    02:00 +17°C° 0 mm 0 m/S 715 mmHg 44%
    03:00 +17°C° 0 mm 0 m/S 715 mmHg 48%
    04:00 +16°C° 0 mm 0 m/S 715 mmHg 51%
    05:00 +16°C° 0 mm 0 m/S 715 mmHg 73%
    06:00 +18°C° 0 mm 0 m/S 716 mmHg 66%
    07:00 +21°C° 0 mm 0 m/S 716 mmHg 59%
    08:00 +23°C° 0 mm 0 m/S 717 mmHg 52%
    09:00 +28°C° 0 mm 1 m/S 717 mmHg 39%
    10:00 +31°C° 0 mm 1 m/S 717 mmHg 26%
    11:00 +36°C° 0 mm 2 m/S 717 mmHg 14%
    12:00 +37°C° 0 mm 2 m/S 716 mmHg 12%
    13:00 +37°C° 0 mm 1 m/S 716 mmHg 10%
    14:00 +39°C° 0 mm 1 m/S 715 mmHg 8%
    15:00 +36°C° 0 mm 1 m/S 715 mmHg 11%
    16:00 +34°C° 0 mm 1 m/S 714 mmHg 13%
    17:00 +32°C° 0 mm 1 m/S 714 mmHg 16%
    18:00 +30°C° 0 mm 1 m/S 714 mmHg 18%
    19:00 +27°C° 0 mm 1 m/S 715 mmHg 19%
    20:00 +24°C° 0 mm 1 m/S 715 mmHg 21%
    21:00 +24°C° 0 mm 1 m/S 715 mmHg 22%
    22:00 +23°C° 0 mm 1 m/S 715 mmHg 24%
    23:00 +22°C° 0 mm 1 m/S 715 mmHg 25%

    Morgen, 22 Januar, Montag

    Zeit Temperatur Niederschläge Wind Luftdruck Luftfeuchtigkeit
    00:00 +21°C° 0 mm 1 m/S 715 mmHg 31%
    01:00 +18°C° 0 mm 0 m/S 714 mmHg 36%
    02:00 +17°C° 0 mm 0 m/S 714 mmHg 42%
    03:00 +17°C° 0 mm 0 m/S 714 mmHg 47%
    04:00 +16°C° 0 mm 0 m/S 714 mmHg 51%
    05:00 +16°C° 0 mm 0 m/S 714 mmHg 56%
    06:00 +18°C° 0 mm 0 m/S 715 mmHg 52%
    07:00 +20°C° 0 mm 0 m/S 716 mmHg 47%
    08:00 +22°C° 0 mm 0 m/S 716 mmHg 43%
    09:00 +28°C° 0 mm 1 m/S 716 mmHg 33%
    10:00 +31°C° 0 mm 1 m/S 716 mmHg 23%
    11:00 +35°C° 0 mm 2 m/S 716 mmHg 13%
    12:00 +36°C° 0 mm 2 m/S 715 mmHg 11%
    13:00 +37°C° 0 mm 1 m/S 715 mmHg 10%
    14:00 +39°C° 0 mm 1 m/S 714 mmHg 8%
    15:00 +36°C° 0 mm 1 m/S 714 mmHg 10%
    16:00 +34°C° 0 mm 1 m/S 713 mmHg 13%
    17:00 +32°C° 0 mm 1 m/S 713 mmHg 15%
    18:00 +30°C° 0 mm 1 m/S 714 mmHg 17%
    19:00 +27°C° 0 mm 1 m/S 714 mmHg 19%
    20:00 +24°C° 0 mm 1 m/S 714 mmHg 21%
    21:00 +23°C° 0 mm 1 m/S 715 mmHg 25%
    22:00 +22°C° 0 mm 1 m/S 715 mmHg 30%
    23:00 +21°C° 0 mm 1 m/S 715 mmHg 35%

    übermorgen, 23 Januar, Dienstag

    Zeit Temperatur Niederschläge Wind Luftdruck Luftfeuchtigkeit
    00:00 +21°C° 0 mm 1 m/S 715 mmHg 47%
    01:00 +18°C° 0 mm 0 m/S 714 mmHg 60%
    02:00 +18°C° 0 mm 0 m/S 714 mmHg 72%
    03:00 +18°C° 0 mm 0 m/S 714 mmHg 76%
    04:00 +18°C° 0 mm 0 m/S 714 mmHg 80%
    05:00 +18°C° 0 mm 0 m/S 714 mmHg 84%
    06:00 +20°C° 0 mm 0 m/S 715 mmHg 80%
    07:00 +21°C° 0 mm 0 m/S 716 mmHg 76%
    08:00 +23°C° 0 mm 0 m/S 716 mmHg 73%
    09:00 +26°C° 0 mm 0 m/S 716 mmHg 59%
    10:00 +29°C° 0 mm 0 m/S 716 mmHg 46%
    11:00 +33°C° 0 mm 0 m/S 716 mmHg 32%
    12:00 +34°C° 0 mm 0 m/S 716 mmHg 27%
    13:00 +35°C° 0 mm 0 m/S 715 mmHg 23%
    14:00 +36°C° 0 mm 0 m/S 714 mmHg 18%
    15:00 +34°C° 0 mm 0 m/S 714 mmHg 21%
    16:00 +32°C° 0 mm 0 m/S 713 mmHg 23%
    17:00 +30°C° 0 mm 0 m/S 713 mmHg 26%
    18:00 +28°C° 0 mm 0 m/S 713 mmHg 31%
    19:00 +25°C° 0 mm 0 m/S 714 mmHg 35%
    20:00 +23°C° 0 mm 0 m/S 714 mmHg 40%
    21:00 +22°C° 0 mm 0 m/S 715 mmHg 44%
    22:00 +21°C° 0 mm 0 m/S 715 mmHg 47%
    23:00 +23°C° 0 mm 1 m/S 715 mmHg 50%

    24 Januar, Mittwoch

    Zeit Temperatur Niederschläge Wind Luftdruck Luftfeuchtigkeit
    00:00 +22°C° 0 mm 1 m/S 714 mmHg 60%
    01:00 +21°C° 0 mm 1 m/S 714 mmHg 70%
    02:00 +20°C° 0 mm 1 m/S 714 mmHg 80%
    03:00 +18°C° 0 mm 0 m/S 714 mmHg 85%
    04:00 +18°C° 0 mm 0 m/S 714 mmHg 90%
    05:00 +18°C° 0 mm 0 m/S 714 mmHg 95%
    06:00 +19°C° 0 mm 0 m/S 715 mmHg 89%
    07:00 +21°C° 0 mm 0 m/S 715 mmHg 84%
    08:00 +22°C° 0 mm 0 m/S 716 mmHg 78%
    09:00 +26°C° 0 mm 0 m/S 716 mmHg 63%
    10:00 +30°C° 0 mm 0 m/S 716 mmHg 49%
    11:00 +33°C° 0 mm 0 m/S 716 mmHg 34%
    12:00 +34°C° 0 mm 0 m/S 715 mmHg 29%
    13:00 +35°C° 0 mm 0 m/S 714 mmHg 24%
    14:00 +39°C° 0 mm 1 m/S 714 mmHg 20%
    15:00 +34°C° 0 mm 0 m/S 713 mmHg 22%
    16:00 +33°C° 0 mm 0 m/S 713 mmHg 25%
    17:00 +31°C° 0 mm 0 m/S 713 mmHg 28%
    18:00 +28°C° 0 mm 0 m/S 713 mmHg 32%
    19:00 +26°C° 0 mm 0 m/S 714 mmHg 36%
    20:00 +24°C° 0 mm 0 m/S 714 mmHg 40%
    21:00 +23°C° 0 mm 0 m/S 714 mmHg 46%
    22:00 +24°C° 0 mm 1 m/S 714 mmHg 53%
    23:00 +23°C° 0 mm 1 m/S 714 mmHg 59%

    25 Januar, Donnerstag

    Zeit Temperatur Niederschläge Wind Luftdruck Luftfeuchtigkeit
    00:00 +20°C° 0 mm 0 m/S 714 mmHg 70%
    01:00 +19°C° 0 mm 0 m/S 714 mmHg 80%
    02:00 +19°C° 0 mm 0 m/S 713 mmHg 91%
    03:00 +19°C° 0 mm 0 m/S 714 mmHg 93%
    04:00 +19°C° 0 mm 0 m/S 714 mmHg 94%
    05:00 +19°C° 0 mm 0 m/S 714 mmHg 96%
    06:00 +20°C° 0 mm 0 m/S 715 mmHg 90%
    07:00 +21°C° 0 mm 0 m/S 715 mmHg 83%
    08:00 +23°C° 0 mm 0 m/S 716 mmHg 77%
    09:00 +26°C° 0 mm 0 m/S 716 mmHg 61%
    10:00 +30°C° 0 mm 0 m/S 716 mmHg 45%
    11:00 +34°C° 0 mm 0 m/S 716 mmHg 29%
    12:00 +36°C° 0 mm 1 m/S 715 mmHg 25%
    13:00 +37°C° 0 mm 1 m/S 714 mmHg 20%
    14:00 +37°C° 0 mm 1 m/S 713 mmHg 16%
    15:00 +36°C° 0 mm 1 m/S 713 mmHg 18%
    16:00 +35°C° 0 mm 1 m/S 713 mmHg 20%
    17:00 +31°C° 0 mm 0 m/S 713 mmHg 22%
    18:00 +29°C° 0 mm 0 m/S 713 mmHg 25%
    19:00 +28°C° 0 mm 1 m/S 713 mmHg 27%
    20:00 +25°C° 0 mm 1 m/S 714 mmHg 30%
    21:00 +24°C° 0 mm 1 m/S 714 mmHg 36%
    22:00 +23°C° 0 mm 1 m/S 714 mmHg 42%
    23:00 +22°C° 0 mm 1 m/S 714 mmHg 48%

    26 Januar, Freitag

    Zeit Temperatur Niederschläge Wind Luftdruck Luftfeuchtigkeit
    00:00 +22°C° 0 mm 1 m/S 714 mmHg 60%
    01:00 +22°C° 0 mm 1 m/S 714 mmHg 73%
    02:00 +21°C° 0 mm 1 m/S 713 mmHg 85%
    03:00 +19°C° 0 mm 0 m/S 714 mmHg 88%
    04:00 +19°C° 0 mm 0 m/S 714 mmHg 91%
    05:00 +19°C° 0 mm 0 m/S 714 mmHg 94%
    06:00 +21°C° 0 mm 0 m/S 715 mmHg 87%
    07:00 +22°C° 0 mm 0 m/S 715 mmHg 80%
    08:00 +23°C° 0 mm 0 m/S 716 mmHg 74%
    09:00 +27°C° 0 mm 0 m/S 716 mmHg 59%
    10:00 +31°C° 0 mm 0 m/S 716 mmHg 44%
    11:00 +34°C° 0 mm 0 m/S 716 mmHg 30%
    12:00 +35°C° 0 mm 0 m/S 715 mmHg 26%
    13:00 +36°C° 0 mm 0 m/S 714 mmHg 22%
    14:00 +37°C° 0 mm 0 m/S 713 mmHg 18%
    15:00 +35°C° 0 mm 0 m/S 713 mmHg 20%
    16:00 +33°C° 0 mm 0 m/S 713 mmHg 22%
    17:00 +31°C° 0 mm 0 m/S 713 mmHg 25%
    18:00 +31°C° 0 mm 1 m/S 713 mmHg 30%
    19:00 +28°C° 0 mm 1 m/S 713 mmHg 35%
    20:00 +26°C° 0 mm 1 m/S 714 mmHg 40%
    21:00 +25°C° 0 mm 1 m/S 714 mmHg 51%
    22:00 +24°C° 0 mm 1 m/S 714 mmHg 61%
    23:00 +23°C° 0 mm 1 m/S 714 mmHg 72%
    Mehr zeigen